Time,TemperatureF,DewpointF,PressureIn,WindDirection,WindDirectionDegrees,WindSpeedMPH,WindSpeedGustMPH,Humidity,HourlyPrecipIn,Conditions,Clouds,dailyrainin,SoftwareType,DateUTC
2013-08-28 00:01:00,73.1,71.6,29.89,North,360,0.0,0.0,95,0.33,RA,,0.01,WeatherDisplay:10.37,2013-08-28 04:01:00,
2013-08-28 00:02:00,73.1,71.6,29.89,North,360,0.0,0.0,95,0.34,RA,,0.02,WeatherDisplay:10.37,2013-08-28 04:02:00,
2013-08-28 00:07:00,73.0,71.5,29.92,North,360,0.0,0.0,95,0.37,RA,,0.06,WeatherDisplay:10.37,2013-08-28 04:07:00,
2013-08-28 00:12:00,73.0,71.5,29.92,North,360,0.0,0.0,95,0.49,RA,,0.17,WeatherDisplay:10.37,2013-08-28 04:12:00,
2013-08-28 00:15:00,73.0,71.5,29.92,North,360,0.0,0.0,95,0.04,RA,,0.28,WeatherDisplay:10.37,2013-08-28 04:15:00,
2013-08-28 00:20:00,72.9,71.4,29.91,North,360,0.0,0.0,95,0.16,RA,,0.38,WeatherDisplay:10.37,2013-08-28 04:20:00,
2013-08-28 00:25:00,72.8,71.3,29.92,North,360,0.0,0.0,95,0.19,RA,,0.41,WeatherDisplay:10.37,2013-08-28 04:25:00,
2013-08-28 00:30:00,72.7,71.2,29.91,North,360,0.0,0.0,95,0.25,RA,,0.47,WeatherDisplay:10.37,2013-08-28 04:30:00,
2013-08-28 00:35:00,72.6,71.1,29.91,North,360,0.0,0.0,95,0.24,RA,,0.52,WeatherDisplay:10.37,2013-08-28 04:35:00,
2013-08-28 00:40:00,72.5,71.3,29.90,North,360,0.0,0.0,96,0.23,RA,,0.53,WeatherDisplay:10.37,2013-08-28 04:40:00,
2013-08-28 00:45:00,72.4,71.2,29.89,North,360,0.0,0.0,96,0.22,RA,,0.54,WeatherDisplay:10.37,2013-08-28 04:45:00,
2013-08-28 00:50:00,72.4,71.2,29.89,North,360,0.0,0.0,96,0.21,RA,,0.54,WeatherDisplay:10.37,2013-08-28 04:50:00,
2013-08-28 00:55:00,72.3,71.1,29.89,North,360,0.0,0.0,96,0.20,OVC,,0.54,WeatherDisplay:10.37,2013-08-28 04:55:00,
2013-08-28 01:00:00,72.2,71.0,29.89,North,360,0.0,0.0,96,0.02,OVC,,0.54,WeatherDisplay:10.37,2013-08-28 05:00:00,
2013-08-28 01:05:00,72.2,71.0,29.89,North,360,0.0,0.0,96,0.51,RA,,0.55,WeatherDisplay:10.37,2013-08-28 05:05:00,
2013-08-28 01:10:00,72.1,70.9,29.89,North,360,0.0,0.0,96,0.43,RA,,0.55,WeatherDisplay:10.37,2013-08-28 05:10:00,
2013-08-28 01:15:00,72.1,70.9,29.89,North,360,0.0,0.0,96,0.31,OVC,,0.55,WeatherDisplay:10.37,2013-08-28 05:15:00,
2013-08-28 01:20:00,72.0,70.8,29.89,North,360,0.0,0.0,96,0.19,OVC,,0.55,WeatherDisplay:10.37,2013-08-28 05:20:00,
2013-08-28 01:25:00,72.0,70.8,29.89,North,360,0.0,0.0,96,0.14,OVC,,0.55,WeatherDisplay:10.37,2013-08-28 05:25:00,
2013-08-28 01:30:00,71.9,70.7,29.89,North,360,0.0,0.0,96,0.08,OVC,,0.55,WeatherDisplay:10.37,2013-08-28 05:30:00,
2013-08-28 01:35:00,72.0,70.8,29.88,North,360,0.0,0.0,96,0.04,OVC,,0.55,WeatherDisplay:10.37,2013-08-28 05:35:00,
2013-08-28 01:40:00,71.9,70.7,29.88,North,360,0.0,0.0,96,0.02,OVC,,0.55,WeatherDisplay:10.37,2013-08-28 05:40:00,
2013-08-28 01:45:00,71.9,70.7,29.88,North,360,0.0,0.0,96,0.01,OVC,,0.55,WeatherDisplay:10.37,2013-08-28 05:45:00,
2013-08-28 01:50:00,71.9,70.7,29.88,North,360,0.0,0.0,96,0.01,OVC,,0.55,WeatherDisplay:10.37,2013-08-28 05:50:00,
2013-08-28 01:55:00,71.9,70.7,29.88,North,360,0.0,0.0,96,0.02,RA,,0.56,WeatherDisplay:10.37,2013-08-28 05:55:00,
2013-08-28 02:00:00,71.9,70.7,29.88,North,360,0.0,0.0,96,0.03,RA,,0.57,WeatherDisplay:10.37,2013-08-28 06:00:00,
2013-08-28 02:05:00,71.8,70.6,29.89,North,360,0.0,0.0,96,0.02,RA,,0.57,WeatherDisplay:10.37,2013-08-28 06:05:00,
2013-08-28 02:10:00,71.8,70.6,29.89,North,360,0.0,0.0,96,0.03,RA,,0.58,WeatherDisplay:10.37,2013-08-28 06:10:00,
2013-08-28 02:15:00,71.9,71.0,29.89,North,360,0.0,0.0,97,0.03,RA,,0.58,WeatherDisplay:10.37,2013-08-28 06:15:00,
2013-08-28 02:20:00,71.8,70.9,29.89,North,360,0.0,0.0,97,0.03,OVC,,0.58,WeatherDisplay:10.37,2013-08-28 06:20:00,
2013-08-28 02:25:00,71.9,71.0,29.88,North,360,0.0,0.0,97,0.03,OVC,,0.58,WeatherDisplay:10.37,2013-08-28 06:25:00,
2013-08-28 02:30:00,71.8,70.9,29.88,North,360,0.0,0.0,97,0.03,OVC,,0.58,WeatherDisplay:10.37,2013-08-28 06:30:00,
2013-08-28 02:35:00,71.7,70.8,29.88,North,360,0.0,0.0,97,0.05,RA,,0.60,WeatherDisplay:10.37,2013-08-28 06:35:00,
2013-08-28 02:40:00,71.7,70.8,29.88,North,360,0.0,0.0,97,0.05,RA,,0.60,WeatherDisplay:10.37,2013-08-28 06:40:00,
2013-08-28 02:45:00,71.7,70.5,29.88,North,360,0.0,0.0,96,0.05,OVC,,0.60,WeatherDisplay:10.37,2013-08-28 06:45:00,
2013-08-28 02:50:00,71.6,70.4,29.87,North,360,0.0,0.0,96,0.05,OVC,,0.60,WeatherDisplay:10.37,2013-08-28 06:50:00,
2013-08-28 02:55:00,71.6,70.7,29.87,North,360,0.0,0.0,97,0.04,OVC,,0.60,WeatherDisplay:10.37,2013-08-28 06:55:00,
2013-08-28 03:00:00,71.6,70.7,29.86,North,360,0.0,0.0,97,0.03,OVC,,0.60,WeatherDisplay:10.37,2013-08-28 07:00:00,
2013-08-28 03:05:00,71.5,70.6,29.86,North,360,0.0,0.0,97,0.03,OVC,,0.60,WeatherDisplay:10.37,2013-08-28 07:05:00,
2013-08-28 03:10:00,71.4,70.2,29.85,North,360,0.0,0.0,96,0.02,OVC,,0.60,WeatherDisplay:10.37,2013-08-28 07:10:00,
2013-08-28 03:15:00,71.3,70.4,29.85,North,360,0.0,0.0,97,0.02,OVC,,0.60,WeatherDisplay:10.37,2013-08-28 07:15:00,
2013-08-28 03:20:00,71.2,70.3,29.86,North,360,0.0,0.0,97,0.02,OVC,,0.60,WeatherDisplay:10.37,2013-08-28 07:20:00,
2013-08-28 03:25:00,71.2,70.3,29.86,North,360,0.0,0.0,97,0.02,OVC,,0.60,WeatherDisplay:10.37,2013-08-28 07:25:00,
2013-08-28 03:30:00,71.1,70.2,29.86,North,360,0.0,0.0,97,0.02,OVC,,0.60,WeatherDisplay:10.37,2013-08-28 07:30:00,
2013-08-28 03:35:00,71.1,70.2,29.86,North,360,0.0,0.0,97,0.00,OVC,,0.60,WeatherDisplay:10.37,2013-08-28 07:35:00,
2013-08-28 03:40:00,71.0,70.1,29.86,North,360,0.0,0.0,97,0.01,RA,,0.61,WeatherDisplay:10.37,2013-08-28 07:40:00,
2013-08-28 03:45:00,71.0,70.1,29.86,North,360,0.0,0.0,97,0.01,RA,,0.61,WeatherDisplay:10.37,2013-08-28 07:45:00,
2013-08-28 03:50:00,71.0,70.1,29.87,North,360,0.0,0.0,97,0.01,OVC,,0.61,WeatherDisplay:10.37,2013-08-28 07:50:00,
2013-08-28 03:55:00,71.0,70.1,29.87,North,360,0.0,0.0,97,0.01,OVC,,0.61,WeatherDisplay:10.37,2013-08-28 07:55:00,
2013-08-28 04:00:00,70.9,70.0,29.87,North,360,0.0,0.0,97,0.01,OVC,,0.61,WeatherDisplay:10.37,2013-08-28 08:00:00,
2013-08-28 04:05:00,71.0,70.1,29.87,North,360,0.0,0.0,97,0.02,RA,,0.62,WeatherDisplay:10.37,2013-08-28 08:05:00,
2013-08-28 04:10:00,70.9,70.0,29.87,North,360,0.0,0.0,97,0.03,RA,,0.63,WeatherDisplay:10.37,2013-08-28 08:10:00,
2013-08-28 04:15:00,70.9,70.0,29.87,North,360,0.0,0.0,97,0.06,RA,,0.66,WeatherDisplay:10.37,2013-08-28 08:15:00,
2013-08-28 04:20:00,70.9,70.0,29.87,North,360,0.0,0.0,97,0.07,RA,,0.67,WeatherDisplay:10.37,2013-08-28 08:20:00,
2013-08-28 04:25:00,70.8,69.9,29.87,North,360,0.0,0.0,97,0.07,RA,,0.67,WeatherDisplay:10.37,2013-08-28 08:25:00,
2013-08-28 04:30:00,70.8,69.9,29.87,North,360,0.0,0.0,97,0.08,RA,,0.68,WeatherDisplay:10.37,2013-08-28 08:30:00,
2013-08-28 04:35:00,70.7,69.8,29.86,North,360,0.0,0.0,97,0.09,RA,,0.70,WeatherDisplay:10.37,2013-08-28 08:35:00,
2013-08-28 04:40:00,70.7,69.8,29.86,North,360,0.0,0.0,97,0.12,RA,,0.73,WeatherDisplay:10.37,2013-08-28 08:40:00,
2013-08-28 04:45:00,70.7,69.8,29.87,North,360,0.0,0.0,97,0.17,RA,,0.78,WeatherDisplay:10.37,2013-08-28 08:45:00,
2013-08-28 04:50:00,70.6,69.7,29.86,North,360,0.0,0.0,97,0.22,RA,,0.84,WeatherDisplay:10.37,2013-08-28 08:50:00,
2013-08-28 04:55:00,70.5,69.6,29.86,North,360,0.0,0.0,97,0.34,RA,,0.96,WeatherDisplay:10.37,2013-08-28 08:55:00,
2013-08-28 05:00:00,70.4,69.5,29.85,North,360,0.0,0.0,97,0.39,RA,,1.00,WeatherDisplay:10.37,2013-08-28 09:00:00,
2013-08-28 05:05:00,70.3,69.4,29.85,North,360,0.0,0.0,97,0.38,RA,,1.00,WeatherDisplay:10.37,2013-08-28 09:05:00,
2013-08-28 05:10:00,70.3,69.4,29.85,North,360,0.0,0.0,97,0.37,OVC,,1.00,WeatherDisplay:10.37,2013-08-28 09:10:00,
2013-08-28 05:15:00,70.2,69.3,29.85,North,360,0.0,0.0,97,0.34,OVC,,1.00,WeatherDisplay:10.37,2013-08-28 09:15:00,
2013-08-28 05:20:00,70.1,69.2,29.85,North,360,0.0,0.0,97,0.33,OVC,,1.00,WeatherDisplay:10.37,2013-08-28 09:20:00,
2013-08-28 05:25:00,70.1,69.2,29.84,North,360,0.0,0.0,97,0.33,OVC,,1.00,WeatherDisplay:10.37,2013-08-28 09:25:00,
2013-08-28 05:30:00,70.1,69.2,29.84,North,360,0.0,0.0,97,0.32,OVC,,1.00,WeatherDisplay:10.37,2013-08-28 09:30:00,
2013-08-28 05:33:00,70.0,69.1,29.84,North,360,0.0,1.0,97,0.31,OVC,,1.00,WeatherDisplay:10.37,2013-08-28 09:33:00,
2013-08-28 05:38:00,70.0,69.1,29.84,North,360,0.0,1.1,97,0.28,OVC,,1.00,WeatherDisplay:10.37,2013-08-28 09:38:00,
2013-08-28 05:43:00,70.0,69.1,29.84,North,360,0.0,0.0,97,0.23,OVC,,1.00,WeatherDisplay:10.37,2013-08-28 09:43:00,
2013-08-28 05:48:00,70.0,69.1,29.84,North,360,0.0,1.1,97,0.17,OVC,,1.00,WeatherDisplay:10.37,2013-08-28 09:48:00,
2013-08-28 05:53:00,70.0,69.1,29.84,North,360,0.0,0.0,97,0.06,OVC,,1.00,WeatherDisplay:10.37,2013-08-28 09:53:00,
2013-08-28 05:58:00,70.1,69.2,29.84,North,360,0.0,0.0,97,0.01,OVC,,1.00,WeatherDisplay:10.37,2013-08-28 09:58:00,
2013-08-28 06:03:00,70.1,69.2,29.84,North,360,0.3,1.1,97,0.00,OVC,,1.00,WeatherDisplay:10.37,2013-08-28 10:03:00,
2013-08-28 06:08:00,70.1,69.2,29.84,North,360,0.2,1.1,97,0.00,OVC,,1.00,WeatherDisplay:10.37,2013-08-28 10:08:00,
2013-08-28 06:13:00,70.1,69.2,29.84,North,360,0.0,0.0,97,0.00,OVC,,1.00,WeatherDisplay:10.37,2013-08-28 10:13:00,
2013-08-28 06:18:00,70.1,69.2,29.84,North,360,0.0,0.0,97,0.00,OVC,,1.00,WeatherDisplay:10.37,2013-08-28 10:18:00,
2013-08-28 06:23:00,70.1,69.2,29.84,North,360,0.0,0.0,97,0.00,OVC,,1.00,WeatherDisplay:10.37,2013-08-28 10:23:00,
2013-08-28 06:28:00,70.1,69.2,29.84,North,360,0.0,2.0,97,0.00,OVC,,1.00,WeatherDisplay:10.37,2013-08-28 10:28:00,
2013-08-28 06:33:00,70.1,69.2,29.83,North,360,0.1,1.1,97,0.00,OVC,,1.00,WeatherDisplay:10.37,2013-08-28 10:33:00,
2013-08-28 06:38:00,70.1,69.2,29.83,North,360,0.4,2.0,97,0.01,RA,,1.01,WeatherDisplay:10.37,2013-08-28 10:38:00,
2013-08-28 06:43:00,70.1,69.2,29.83,North,360,0.1,1.1,97,0.02,RA,,1.02,WeatherDisplay:10.37,2013-08-28 10:43:00,
2013-08-28 06:48:00,70.1,69.2,29.83,North,360,0.0,2.3,97,0.04,RA,,1.04,WeatherDisplay:10.37,2013-08-28 10:48:00,
2013-08-28 06:53:00,70.2,69.3,29.83,North,360,0.6,1.1,97,0.04,RA,,1.04,WeatherDisplay:10.37,2013-08-28 10:53:00,
2013-08-28 06:58:00,70.2,69.3,29.83,North,360,0.0,1.1,97,0.04,OVC,,1.04,WeatherDisplay:10.37,2013-08-28 10:58:00,
2013-08-28 07:03:00,70.3,69.4,29.83,North,360,0.0,0.0,97,0.04,OVC,,1.04,WeatherDisplay:10.37,2013-08-28 11:03:00,
2013-08-28 07:08:00,70.4,69.5,29.83,North,360,0.1,1.1,97,0.04,OVC,,1.04,WeatherDisplay:10.37,2013-08-28 11:08:00,
2013-08-28 07:13:00,70.4,69.5,29.83,North,360,0.0,0.0,97,0.04,OVC,,1.04,WeatherDisplay:10.37,2013-08-28 11:13:00,
2013-08-28 07:18:00,70.5,69.9,29.83,North,360,0.0,3.5,98,0.04,OVC,,1.04,WeatherDisplay:10.37,2013-08-28 11:18:00,
2013-08-28 07:23:00,70.6,70.0,29.83,North,360,0.8,4.6,98,0.04,OVC,,1.04,WeatherDisplay:10.37,2013-08-28 11:23:00,
2013-08-28 07:28:00,70.6,70.0,29.82,North,360,0.0,0.0,98,0.04,OVC,,1.04,WeatherDisplay:10.37,2013-08-28 11:28:00,
2013-08-28 07:33:00,70.7,70.1,29.82,North,360,0.0,0.0,98,0.04,OVC,,1.04,WeatherDisplay:10.37,2013-08-28 11:33:00,
2013-08-28 07:38:00,70.7,70.1,29.83,North,360,0.1,1.1,98,0.03,OVC,,1.04,WeatherDisplay:10.37,2013-08-28 11:38:00,
2013-08-28 07:43:00,70.8,70.2,29.83,North,360,0.0,1.1,98,0.02,OVC,,1.04,WeatherDisplay:10.37,2013-08-28 11:43:00,
2013-08-28 07:48:00,70.8,69.9,29.83,North,360,0.0,0.0,97,0.00,OVC,,1.04,WeatherDisplay:10.37,2013-08-28 11:48:00,
2013-08-28 07:53:00,70.9,70.0,29.83,North,360,0.0,0.0,97,0.00,OVC,,1.04,WeatherDisplay:10.37,2013-08-28 11:53:00,
2013-08-28 07:58:00,70.9,70.0,29.83,North,360,0.0,0.0,97,0.00,OVC,,1.04,WeatherDisplay:10.37,2013-08-28 11:58:00,
2013-08-28 08:03:00,70.9,70.0,29.83,North,360,0.0,0.0,97,0.00,OVC,,1.04,WeatherDisplay:10.37,2013-08-28 12:03:00,
2013-08-28 08:08:00,70.9,70.0,29.83,North,360,0.0,0.0,97,0.00,OVC,,1.04,WeatherDisplay:10.37,2013-08-28 12:08:00,
2013-08-28 08:13:00,70.8,69.9,29.83,North,360,0.0,0.0,97,0.00,OVC,,1.04,WeatherDisplay:10.37,2013-08-28 12:13:00,
2013-08-28 08:18:00,70.8,69.9,29.83,North,360,0.0,0.0,97,0.00,OVC,,1.04,WeatherDisplay:10.37,2013-08-28 12:18:00,
2013-08-28 08:23:00,70.8,69.9,29.83,North,360,0.0,0.0,97,0.00,OVC,,1.04,WeatherDisplay:10.37,2013-08-28 12:23:00,
2013-08-28 08:28:00,70.8,69.9,29.83,North,360,0.0,0.0,97,0.00,OVC,,1.04,WeatherDisplay:10.37,2013-08-28 12:28:00,
2013-08-28 08:33:00,70.9,70.0,29.83,North,360,0.0,0.0,97,0.00,OVC,,1.04,WeatherDisplay:10.37,2013-08-28 12:33:00,
2013-08-28 08:38:00,70.9,70.0,29.83,North,360,0.0,0.0,97,0.00,OVC,,1.04,WeatherDisplay:10.37,2013-08-28 12:38:00,
2013-08-28 08:43:00,70.9,70.0,29.83,North,360,0.0,0.0,97,0.00,OVC,,1.04,WeatherDisplay:10.37,2013-08-28 12:43:00,
2013-08-28 08:48:00,70.9,70.0,29.83,North,360,0.0,0.0,97,0.00,OVC,,1.04,WeatherDisplay:10.37,2013-08-28 12:48:00,
2013-08-28 08:53:00,70.9,70.0,29.83,North,360,0.0,0.0,97,0.00,OVC,,1.04,WeatherDisplay:10.37,2013-08-28 12:53:00,
2013-08-28 08:58:00,71.0,70.1,29.83,North,360,0.0,0.0,97,0.00,OVC,,1.04,WeatherDisplay:10.37,2013-08-28 12:58:00,
2013-08-28 09:03:00,71.0,70.1,29.83,North,360,0.0,0.0,97,0.00,-RA,,1.04,WeatherDisplay:10.37,2013-08-28 13:03:00,
2013-08-28 09:08:00,71.1,70.2,29.83,North,360,0.0,0.0,97,0.00,-RA,,1.04,WeatherDisplay:10.37,2013-08-28 13:08:00,
2013-08-28 09:13:00,71.2,70.6,29.83,North,360,0.0,0.0,98,0.00,-RA,,1.04,WeatherDisplay:10.37,2013-08-28 13:13:00,
2013-08-28 09:18:00,71.2,70.6,29.82,North,360,0.0,0.0,98,0.00,-RA,,1.04,WeatherDisplay:10.37,2013-08-28 13:18:00,
2013-08-28 09:23:00,71.3,70.7,29.82,North,360,0.0,0.0,98,0.01,-RA,,1.05,WeatherDisplay:10.37,2013-08-28 13:23:00,
2013-08-28 09:28:00,71.4,70.8,29.82,North,360,0.0,0.0,98,0.01,-RA,,1.05,WeatherDisplay:10.37,2013-08-28 13:28:00,
2013-08-28 09:33:00,71.5,70.9,29.81,North,360,0.0,0.0,98,0.01,-RA,,1.05,WeatherDisplay:10.37,2013-08-28 13:33:00,
2013-08-28 09:38:00,71.6,71.0,29.82,North,360,0.0,0.0,98,0.01,-RA,,1.05,WeatherDisplay:10.37,2013-08-28 13:38:00,
2013-08-28 09:43:00,71.6,71.0,29.82,North,360,0.0,0.0,98,0.02,-RA,,1.06,WeatherDisplay:10.37,2013-08-28 13:43:00,
2013-08-28 09:48:00,71.7,71.1,29.82,North,360,0.0,0.0,98,0.02,-RA,,1.06,WeatherDisplay:10.37,2013-08-28 13:48:00,
2013-08-28 09:53:00,71.7,71.1,29.82,North,360,0.0,0.0,98,0.02,-RA,,1.06,WeatherDisplay:10.37,2013-08-28 13:53:00,
2013-08-28 09:58:00,71.8,71.2,29.82,North,360,0.0,0.0,98,0.02,-RA,,1.06,WeatherDisplay:10.37,2013-08-28 13:58:00,
2013-08-28 10:03:00,71.8,71.2,29.81,North,360,0.0,0.0,98,0.02,-RA,,1.06,WeatherDisplay:10.37,2013-08-28 14:03:00,
2013-08-28 10:08:00,71.9,71.3,29.82,North,360,0.0,0.0,98,0.02,-RA,,1.06,WeatherDisplay:10.37,2013-08-28 14:08:00,
2013-08-28 10:13:00,72.1,71.5,29.82,North,360,0.0,0.0,98,0.03,-RA,,1.07,WeatherDisplay:10.37,2013-08-28 14:13:00,
2013-08-28 10:18:00,72.1,71.5,29.82,North,360,0.0,0.0,98,0.04,-RA,,1.08,WeatherDisplay:10.37,2013-08-28 14:18:00,
2013-08-28 10:23:00,72.2,71.6,29.82,North,360,0.0,0.0,98,0.03,-RA,,1.08,WeatherDisplay:10.37,2013-08-28 14:23:00,
2013-08-28 10:28:00,72.2,71.6,29.81,North,360,0.0,0.0,98,0.03,-RA,,1.08,WeatherDisplay:10.37,2013-08-28 14:28:00,
2013-08-28 10:33:00,72.3,71.7,29.81,North,360,0.1,2.3,98,0.03,-RA,,1.08,WeatherDisplay:10.37,2013-08-28 14:33:00,
2013-08-28 10:38:00,72.5,71.9,29.81,North,360,0.0,1.1,98,0.03,-RA,,1.08,WeatherDisplay:10.37,2013-08-28 14:38:00,
2013-08-28 10:43:00,72.6,72.0,29.81,North,360,0.2,1.1,98,0.02,-RA,,1.08,WeatherDisplay:10.37,2013-08-28 14:43:00,
2013-08-28 10:48:00,72.7,72.1,29.81,North,360,0.2,2.3,98,0.02,-RA,,1.08,WeatherDisplay:10.37,2013-08-28 14:48:00,
2013-08-28 10:53:00,72.8,72.2,29.81,North,360,0.1,1.1,98,0.02,-RA,,1.08,WeatherDisplay:10.37,2013-08-28 14:53:00,
2013-08-28 10:58:00,72.9,72.3,29.81,North,360,0.1,0.0,98,0.02,-RA,,1.08,WeatherDisplay:10.37,2013-08-28 14:58:00,
2013-08-28 11:03:00,73.0,72.4,29.81,North,360,0.0,0.0,98,0.02,-RA,,1.08,WeatherDisplay:10.37,2013-08-28 15:03:00,
2013-08-28 11:08:00,73.0,72.4,29.81,North,360,0.0,0.0,98,0.02,-RA,,1.08,WeatherDisplay:10.37,2013-08-28 15:08:00,
2013-08-28 11:13:00,73.0,72.4,29.81,North,360,0.0,0.0,98,0.01,-RA,,1.08,WeatherDisplay:10.37,2013-08-28 15:13:00,
2013-08-28 11:18:00,73.0,72.4,29.81,North,360,0.1,1.1,98,0.00,-RA,,1.08,WeatherDisplay:10.37,2013-08-28 15:18:00,
2013-08-28 11:23:00,73.1,72.5,29.81,North,360,0.0,0.0,98,0.00,-RA,,1.08,WeatherDisplay:10.37,2013-08-28 15:23:00,
2013-08-28 11:28:00,73.1,72.5,29.81,North,360,0.5,1.1,98,0.00,-RA,,1.08,WeatherDisplay:10.37,2013-08-28 15:28:00,
2013-08-28 11:33:00,73.2,72.6,29.81,North,360,0.0,0.0,98,0.00,-RA,,1.08,WeatherDisplay:10.37,2013-08-28 15:33:00,
2013-08-28 11:38:00,73.3,72.7,29.81,North,360,0.0,0.0,98,0.00,-RA,,1.08,WeatherDisplay:10.37,2013-08-28 15:38:00,
2013-08-28 11:43:00,73.5,72.9,29.81,North,360,0.0,0.0,98,0.00,-RA,,1.08,WeatherDisplay:10.37,2013-08-28 15:43:00,
2013-08-28 11:48:00,73.7,73.1,29.81,North,360,0.0,0.0,98,0.00,-RA,,1.08,WeatherDisplay:10.37,2013-08-28 15:48:00,
2013-08-28 11:53:00,73.6,73.0,29.81,North,360,0.0,0.0,98,0.00,-RA,,1.08,WeatherDisplay:10.37,2013-08-28 15:53:00,
2013-08-28 11:58:00,73.5,72.9,29.81,North,360,0.0,0.0,98,0.00,-RA,,1.08,WeatherDisplay:10.37,2013-08-28 15:58:00,
2013-08-28 12:03:00,73.4,72.5,29.81,North,360,0.2,1.1,97,0.00,-RA,,1.08,WeatherDisplay:10.37,2013-08-28 16:03:00,
2013-08-28 12:08:00,73.4,72.5,29.81,North,360,0.0,0.0,97,0.00,-RA,,1.08,WeatherDisplay:10.37,2013-08-28 16:08:00,
2013-08-28 12:13:00,73.5,72.9,29.81,North,360,0.0,1.1,98,0.00,-RA,,1.08,WeatherDisplay:10.37,2013-08-28 16:13:00,
2013-08-28 12:18:00,73.6,73.0,29.81,North,360,0.0,1.1,98,0.00,-RA,,1.08,WeatherDisplay:10.37,2013-08-28 16:18:00,
2013-08-28 12:23:00,73.7,72.8,29.81,North,360,0.9,2.0,97,0.00,-RA,,1.08,WeatherDisplay:10.37,2013-08-28 16:23:00,
2013-08-28 12:28:00,73.7,72.8,29.81,North,360,0.0,0.0,97,0.00,-RA,,1.08,WeatherDisplay:10.37,2013-08-28 16:28:00,
2013-08-28 12:33:00,73.6,72.7,29.81,North,360,0.0,1.1,97,0.00,-RA,,1.08,WeatherDisplay:10.37,2013-08-28 16:33:00,
2013-08-28 12:38:00,73.8,73.2,29.81,North,360,0.0,0.0,98,0.00,-RA,,1.08,WeatherDisplay:10.37,2013-08-28 16:38:00,
2013-08-28 12:43:00,73.9,73.3,29.81,North,360,0.0,0.0,98,0.00,-RA,,1.08,WeatherDisplay:10.37,2013-08-28 16:43:00,
2013-08-28 12:49:00,73.9,73.3,29.81,North,360,0.0,0.0,98,0.00,-RA,,1.08,WeatherDisplay:10.37,2013-08-28 16:49:00,
2013-08-28 12:54:00,73.9,73.0,29.81,North,360,0.0,0.0,97,0.00,-RA,,1.08,WeatherDisplay:10.37,2013-08-28 16:54:00,
2013-08-28 12:59:00,73.9,73.0,29.81,North,360,0.0,0.0,97,0.00,-RA,,1.08,WeatherDisplay:10.37,2013-08-28 16:59:00,
2013-08-28 13:04:00,73.9,73.0,29.81,North,360,0.0,1.1,97,0.00,OVC,,1.08,WeatherDisplay:10.37,2013-08-28 17:04:00,
2013-08-28 13:09:00,74.0,73.1,29.81,North,360,0.0,0.0,97,0.00,OVC,,1.08,WeatherDisplay:10.37,2013-08-28 17:09:00,
2013-08-28 13:14:00,74.0,73.1,29.81,North,360,0.0,0.0,97,0.00,OVC,,1.08,WeatherDisplay:10.37,2013-08-28 17:14:00,
2013-08-28 13:19:00,74.2,73.3,29.81,North,360,0.0,0.0,97,0.00,OVC,,1.08,WeatherDisplay:10.37,2013-08-28 17:19:00,
2013-08-28 13:24:00,74.3,73.4,29.81,North,360,0.0,0.0,97,0.00,OVC,,1.08,WeatherDisplay:10.37,2013-08-28 17:24:00,
2013-08-28 13:29:00,74.4,73.8,29.81,North,360,0.1,1.1,98,0.00,OVC,,1.08,WeatherDisplay:10.37,2013-08-28 17:29:00,
2013-08-28 13:34:00,74.5,73.6,29.81,North,360,0.0,1.1,97,0.00,OVC,,1.08,WeatherDisplay:10.37,2013-08-28 17:34:00,
2013-08-28 13:39:00,74.5,73.6,29.81,North,360,0.0,0.0,97,0.00,OVC,,1.08,WeatherDisplay:10.37,2013-08-28 17:39:00,
2013-08-28 13:44:00,74.6,73.7,29.81,North,360,0.1,0.0,97,0.00,OVC,,1.08,WeatherDisplay:10.37,2013-08-28 17:44:00,
2013-08-28 13:49:00,74.7,73.8,29.81,North,360,0.0,0.0,97,0.00,OVC,,1.08,WeatherDisplay:10.37,2013-08-28 17:49:00,
2013-08-28 13:54:00,74.9,74.0,29.81,North,360,0.0,0.0,97,0.00,OVC,,1.08,WeatherDisplay:10.37,2013-08-28 17:54:00,
2013-08-28 13:59:00,75.1,74.2,29.81,North,360,0.0,0.0,97,0.00,OVC,,1.08,WeatherDisplay:10.37,2013-08-28 17:59:00,
2013-08-28 14:04:00,75.2,74.3,29.81,North,360,0.0,0.0,97,0.00,-RA,,1.08,WeatherDisplay:10.37,2013-08-28 18:04:00,
2013-08-28 14:09:00,75.1,74.2,29.81,North,360,0.0,0.0,97,0.00,-RA,,1.08,WeatherDisplay:10.37,2013-08-28 18:09:00,
2013-08-28 14:14:00,75.0,74.1,29.81,North,360,1.4,4.0,97,0.00,-RA,,1.08,WeatherDisplay:10.37,2013-08-28 18:14:00,
2013-08-28 14:19:00,74.9,73.7,29.81,North,360,0.1,1.1,96,0.00,-RA,,1.08,WeatherDisplay:10.37,2013-08-28 18:19:00,
2013-08-28 14:24:00,74.9,73.7,29.81,North,360,0.0,1.1,96,0.00,-RA,,1.08,WeatherDisplay:10.37,2013-08-28 18:24:00,
2013-08-28 14:29:00,74.9,73.7,29.81,North,360,0.0,0.0,96,0.00,-RA,,1.08,WeatherDisplay:10.37,2013-08-28 18:29:00,
2013-08-28 14:34:00,74.9,73.7,29.82,North,360,0.4,3.5,96,0.00,-RA,,1.08,WeatherDisplay:10.37,2013-08-28 18:34:00,
2013-08-28 14:39:00,75.0,73.8,29.82,North,360,0.1,1.1,96,0.00,-RA,,1.08,WeatherDisplay:10.37,2013-08-28 18:39:00,
2013-08-28 14:44:00,75.2,74.0,29.82,North,360,0.0,0.0,96,0.00,-RA,,1.08,WeatherDisplay:10.37,2013-08-28 18:44:00,
2013-08-28 14:49:00,75.3,74.1,29.82,North,360,0.0,0.0,96,0.00,-RA,,1.08,WeatherDisplay:10.37,2013-08-28 18:49:00,
2013-08-28 14:54:00,75.6,74.4,29.82,North,360,0.0,0.0,96,0.00,-RA,,1.08,WeatherDisplay:10.37,2013-08-28 18:54:00,
2013-08-28 14:59:00,75.6,74.1,29.82,North,360,0.0,0.0,95,0.00,-RA,,1.08,WeatherDisplay:10.37,2013-08-28 18:59:00,
2013-08-28 15:04:00,75.8,74.6,29.82,North,360,0.0,0.0,96,0.00,-RA,,1.08,WeatherDisplay:10.37,2013-08-28 19:04:00,
2013-08-28 15:09:00,76.0,74.5,29.82,North,360,0.0,0.0,95,0.00,-RA,,1.08,WeatherDisplay:10.37,2013-08-28 19:09:00,
2013-08-28 15:14:00,76.1,74.6,29.82,North,360,0.0,0.0,95,0.00,-RA,,1.08,WeatherDisplay:10.37,2013-08-28 19:14:00,
2013-08-28 15:19:00,76.3,74.4,29.82,North,360,0.0,0.0,94,0.00,-RA,,1.08,WeatherDisplay:10.37,2013-08-28 19:19:00,
2013-08-28 15:24:00,76.5,74.6,29.82,North,360,0.0,0.0,94,0.00,-RA,,1.08,WeatherDisplay:10.37,2013-08-28 19:24:00,
2013-08-28 15:29:00,76.6,74.7,29.82,North,360,0.1,0.0,94,0.00,-RA,,1.08,WeatherDisplay:10.37,2013-08-28 19:29:00,
2013-08-28 15:34:00,76.8,74.9,29.82,North,360,0.4,1.1,94,0.00,-RA,,1.08,WeatherDisplay:10.37,2013-08-28 19:34:00,
2013-08-28 15:39:00,76.9,74.7,29.82,North,360,0.0,0.0,93,0.00,-RA,,1.08,WeatherDisplay:10.37,2013-08-28 19:39:00,
2013-08-28 15:44:00,76.6,74.1,29.82,North,360,0.0,0.0,92,0.00,-RA,,1.08,WeatherDisplay:10.37,2013-08-28 19:44:00,
2013-08-28 15:49:00,76.4,74.2,29.82,North,360,0.0,0.0,93,0.01,-RA,,1.09,WeatherDisplay:10.37,2013-08-28 19:49:00,
2013-08-28 15:54:00,75.9,73.1,29.82,North,360,0.0,0.0,91,0.02,-RA,,1.10,WeatherDisplay:10.37,2013-08-28 19:54:00,
2013-08-28 15:59:00,75.5,72.7,29.82,North,360,0.0,1.1,91,0.02,-RA,,1.10,WeatherDisplay:10.37,2013-08-28 19:59:00,
2013-08-28 16:04:00,75.1,72.6,29.82,North,360,0.0,0.0,92,0.02,-RA,,1.10,WeatherDisplay:10.37,2013-08-28 20:04:00,
2013-08-28 16:09:00,74.8,72.3,29.83,North,360,0.1,3.5,92,0.02,-RA,,1.10,WeatherDisplay:10.37,2013-08-28 20:09:00,
2013-08-28 16:14:00,74.4,71.9,29.83,North,360,0.0,1.1,92,0.02,-RA,,1.10,WeatherDisplay:10.37,2013-08-28 20:14:00,
2013-08-28 16:19:00,74.1,71.9,29.83,North,360,0.6,2.3,93,0.03,-RA,,1.11,WeatherDisplay:10.37,2013-08-28 20:19:00,
2013-08-28 16:24:00,74.0,72.2,29.83,North,360,0.0,0.0,94,0.03,-RA,,1.11,WeatherDisplay:10.37,2013-08-28 20:24:00,
2013-08-28 16:29:00,74.2,72.7,29.83,North,360,0.1,1.0,95,0.03,-RA,,1.11,WeatherDisplay:10.37,2013-08-28 20:29:00,
2013-08-28 16:34:00,74.2,72.4,29.83,North,360,2.1,3.5,94,0.03,-RA,,1.11,WeatherDisplay:10.37,2013-08-28 20:34:00,
2013-08-28 16:39:00,74.0,72.2,29.84,North,360,0.0,1.1,94,0.03,-RA,,1.11,WeatherDisplay:10.37,2013-08-28 20:39:00,
2013-08-28 16:44:00,74.0,72.2,29.84,North,360,2.3,3.5,94,0.03,-RA,,1.11,WeatherDisplay:10.37,2013-08-28 20:44:00,
2013-08-28 16:49:00,74.1,72.3,29.84,North,360,0.0,0.0,94,0.02,-RA,,1.11,WeatherDisplay:10.37,2013-08-28 20:49:00,
2013-08-28 16:54:00,74.1,72.6,29.84,North,360,0.0,0.0,95,0.02,-RA,,1.11,WeatherDisplay:10.37,2013-08-28 20:54:00,
2013-08-28 16:59:00,74.4,72.9,29.84,North,360,0.0,0.0,95,0.01,-RA,,1.11,WeatherDisplay:10.37,2013-08-28 20:59:00,
2013-08-28 17:04:00,74.2,72.0,29.84,North,360,0.5,1.1,93,0.01,-RA,,1.11,WeatherDisplay:10.37,2013-08-28 21:04:00,
2013-08-28 17:09:00,74.1,72.3,29.84,North,360,0.4,3.5,94,0.01,-RA,,1.11,WeatherDisplay:10.37,2013-08-28 21:09:00,
2013-08-28 17:14:00,74.2,72.4,29.84,North,360,0.9,3.5,94,0.01,-RA,,1.11,WeatherDisplay:10.37,2013-08-28 21:14:00,
2013-08-28 17:19:00,74.2,72.4,29.84,North,360,1.3,5.8,94,0.00,-RA,,1.11,WeatherDisplay:10.37,2013-08-28 21:19:00,
2013-08-28 17:24:00,74.3,72.5,29.85,North,360,0.4,0.0,94,0.00,-RA,,1.11,WeatherDisplay:10.37,2013-08-28 21:24:00,
2013-08-28 17:29:00,74.7,73.2,29.85,North,360,0.1,0.0,95,0.00,-RA,,1.11,WeatherDisplay:10.37,2013-08-28 21:29:00,
2013-08-28 17:34:00,75.0,73.5,29.85,North,360,0.0,0.0,95,0.00,-RA,,1.11,WeatherDisplay:10.37,2013-08-28 21:34:00,
2013-08-28 17:39:00,75.0,72.8,29.85,North,360,0.1,2.0,93,0.00,-RA,,1.11,WeatherDisplay:10.37,2013-08-28 21:39:00,
2013-08-28 17:44:00,75.1,72.9,29.85,North,360,0.0,0.0,93,0.00,-RA,,1.11,WeatherDisplay:10.37,2013-08-28 21:44:00,
2013-08-28 17:49:00,75.1,72.9,29.85,North,360,0.0,0.0,93,0.00,-RA,,1.11,WeatherDisplay:10.37,2013-08-28 21:49:00,
2013-08-28 17:54:00,75.2,73.4,29.85,North,360,0.0,0.0,94,0.00,-RA,,1.11,WeatherDisplay:10.37,2013-08-28 21:54:00,
2013-08-28 17:59:00,75.2,73.0,29.85,North,360,0.1,2.3,93,0.00,-RA,,1.11,WeatherDisplay:10.37,2013-08-28 21:59:00,
2013-08-28 18:04:00,75.2,73.0,29.85,North,360,0.1,1.1,93,0.00,BKN,,1.11,WeatherDisplay:10.37,2013-08-28 22:04:00,
2013-08-28 18:09:00,75.2,73.0,29.85,North,360,0.1,1.1,93,0.00,BKN,,1.11,WeatherDisplay:10.37,2013-08-28 22:09:00,
2013-08-28 18:14:00,75.2,73.0,29.85,North,360,0.7,4.0,93,0.00,BKN,,1.11,WeatherDisplay:10.37,2013-08-28 22:14:00,
2013-08-28 18:19:00,75.1,72.9,29.85,North,360,0.4,3.5,93,0.00,BKN,,1.11,WeatherDisplay:10.37,2013-08-28 22:19:00,
2013-08-28 18:24:00,75.0,72.5,29.86,North,360,1.2,4.0,92,0.00,BKN,,1.11,WeatherDisplay:10.37,2013-08-28 22:24:00,
2013-08-28 18:29:00,75.0,72.8,29.86,North,360,0.4,2.3,93,0.00,BKN,,1.11,WeatherDisplay:10.37,2013-08-28 22:29:00,
2013-08-28 18:34:00,75.1,72.9,29.86,North,360,0.0,1.1,93,0.00,BKN,,1.11,WeatherDisplay:10.37,2013-08-28 22:34:00,
2013-08-28 18:39:00,75.0,72.8,29.86,North,360,0.0,0.0,93,0.00,BKN,,1.11,WeatherDisplay:10.37,2013-08-28 22:39:00,
2013-08-28 18:44:00,75.0,72.8,29.86,North,360,0.0,0.0,93,0.00,BKN,,1.11,WeatherDisplay:10.37,2013-08-28 22:44:00,
2013-08-28 18:49:00,75.1,72.9,29.86,North,360,0.0,0.0,93,0.00,BKN,,1.11,WeatherDisplay:10.37,2013-08-28 22:49:00,
2013-08-28 18:54:00,75.1,72.9,29.86,North,360,0.0,0.0,93,0.00,BKN,,1.11,WeatherDisplay:10.37,2013-08-28 22:54:00,
2013-08-28 18:59:00,75.1,72.9,29.85,North,360,0.3,3.5,93,0.00,BKN,,1.11,WeatherDisplay:10.37,2013-08-28 22:59:00,
2013-08-28 19:04:00,75.1,72.9,29.85,North,360,0.3,3.0,93,0.00,BKN,,1.11,WeatherDisplay:10.37,2013-08-28 23:04:00,
2013-08-28 19:09:00,75.1,72.6,29.86,North,360,0.5,2.3,92,0.00,BKN,,1.11,WeatherDisplay:10.37,2013-08-28 23:09:00,
2013-08-28 19:14:00,74.9,72.4,29.86,North,360,1.5,4.0,92,0.00,BKN,,1.11,WeatherDisplay:10.37,2013-08-28 23:14:00,
2013-08-28 19:19:00,74.8,72.3,29.86,North,360,0.0,0.0,92,0.00,BKN,,1.11,WeatherDisplay:10.37,2013-08-28 23:19:00,
2013-08-28 19:24:00,74.6,71.8,29.86,North,360,0.0,1.1,91,0.00,BKN,,1.11,WeatherDisplay:10.37,2013-08-28 23:24:00,
2013-08-28 19:29:00,74.4,71.6,29.86,North,360,1.7,4.6,91,0.00,BKN,,1.11,WeatherDisplay:10.37,2013-08-28 23:29:00,
2013-08-28 19:34:00,74.2,71.4,29.87,North,360,0.4,1.1,91,0.00,BKN,,1.11,WeatherDisplay:10.37,2013-08-28 23:34:00,
2013-08-28 19:39:00,73.9,71.1,29.87,North,360,0.0,3.5,91,0.00,BKN,,1.11,WeatherDisplay:10.37,2013-08-28 23:39:00,
2013-08-28 19:44:00,73.6,70.8,29.87,North,360,0.0,1.1,91,0.00,BKN,,1.11,WeatherDisplay:10.37,2013-08-28 23:44:00,
2013-08-28 19:49:00,73.4,70.6,29.88,North,360,0.4,2.3,91,0.00,BKN,,1.11,WeatherDisplay:10.37,2013-08-28 23:49:00,
2013-08-28 19:54:00,73.2,70.4,29.88,North,360,0.0,0.0,91,0.00,BKN,,1.11,WeatherDisplay:10.37,2013-08-28 23:54:00,
2013-08-28 19:59:00,73.0,70.5,29.88,North,360,0.0,0.0,92,0.00,BKN,,1.11,WeatherDisplay:10.37,2013-08-28 23:59:00,
2013-08-28 20:04:00,72.8,70.3,29.88,North,360,0.1,1.1,92,0.00,SCT,,1.11,WeatherDisplay:10.37,2013-08-29 00:04:00,
2013-08-28 20:09:00,72.6,70.1,29.88,North,360,0.0,0.0,92,0.00,SCT,,1.11,WeatherDisplay:10.37,2013-08-29 00:09:00,
2013-08-28 20:14:00,72.4,70.3,29.88,North,360,0.0,0.0,93,0.00,SCT,,1.11,WeatherDisplay:10.37,2013-08-29 00:14:00,
2013-08-28 20:19:00,72.2,70.1,29.88,North,360,0.0,1.1,93,0.00,SCT,,1.11,WeatherDisplay:10.37,2013-08-29 00:19:00,
2013-08-28 20:24:00,72.1,70.0,29.88,North,360,0.0,1.0,93,0.00,SCT,,1.11,WeatherDisplay:10.37,2013-08-29 00:24:00,
2013-08-28 20:29:00,72.0,69.9,29.89,North,360,0.9,3.5,93,0.00,SCT,,1.11,WeatherDisplay:10.37,2013-08-29 00:29:00,
2013-08-28 20:34:00,71.9,70.1,29.89,North,360,0.1,2.3,94,0.00,SCT,,1.11,WeatherDisplay:10.37,2013-08-29 00:34:00,
2013-08-28 20:39:00,71.7,69.9,29.89,North,360,0.0,0.0,94,0.00,SCT,,1.11,WeatherDisplay:10.37,2013-08-29 00:39:00,
2013-08-28 20:44:00,71.6,69.8,29.89,North,360,0.0,0.0,94,0.00,SCT,,1.11,WeatherDisplay:10.37,2013-08-29 00:44:00,
2013-08-28 20:49:00,71.5,69.7,29.90,North,360,0.0,0.0,94,0.00,SCT,,1.11,WeatherDisplay:10.37,2013-08-29 00:49:00,
2013-08-28 20:54:00,71.4,69.6,29.90,North,360,0.0,0.0,94,0.00,SCT,,1.11,WeatherDisplay:10.37,2013-08-29 00:54:00,
2013-08-28 20:59:00,71.2,69.4,29.90,North,360,0.0,0.0,94,0.00,SCT,,1.11,WeatherDisplay:10.37,2013-08-29 00:59:00,
2013-08-28 21:04:00,71.1,69.6,29.91,North,360,0.0,0.0,95,0.00,FEW,,1.11,WeatherDisplay:10.37,2013-08-29 01:04:00,
2013-08-28 21:09:00,71.0,69.5,29.91,North,360,0.1,1.1,95,0.00,FEW,,1.11,WeatherDisplay:10.37,2013-08-29 01:09:00,
2013-08-28 21:14:00,70.9,69.4,29.91,North,360,0.0,0.0,95,0.00,FEW,,1.11,WeatherDisplay:10.37,2013-08-29 01:14:00,
2013-08-28 21:19:00,70.8,69.3,29.91,North,360,0.0,2.3,95,0.00,FEW,,1.11,WeatherDisplay:10.37,2013-08-29 01:19:00,
2013-08-28 21:24:00,70.7,69.2,29.92,North,360,0.0,0.0,95,0.00,FEW,,1.11,WeatherDisplay:10.37,2013-08-29 01:24:00,
2013-08-28 21:29:00,70.6,69.1,29.92,North,360,0.0,0.0,95,0.00,FEW,,1.11,WeatherDisplay:10.37,2013-08-29 01:29:00,
2013-08-28 21:34:00,70.4,68.9,29.92,North,360,0.0,0.0,95,0.00,FEW,,1.11,WeatherDisplay:10.37,2013-08-29 01:34:00,
2013-08-28 21:39:00,70.4,68.9,29.92,North,360,0.0,0.0,95,0.00,FEW,,1.11,WeatherDisplay:10.37,2013-08-29 01:39:00,
2013-08-28 21:44:00,70.3,69.1,29.92,North,360,0.0,0.0,96,0.00,FEW,,1.11,WeatherDisplay:10.37,2013-08-29 01:44:00,
2013-08-28 21:49:00,70.2,68.7,29.93,North,360,0.0,0.0,95,0.00,FEW,,1.11,WeatherDisplay:10.37,2013-08-29 01:49:00,
2013-08-28 21:54:00,70.1,68.6,29.93,North,360,0.0,0.0,95,0.00,FEW,,1.11,WeatherDisplay:10.37,2013-08-29 01:54:00,
2013-08-28 21:59:00,70.1,68.9,29.93,North,360,0.0,0.0,96,0.00,FEW,,1.11,WeatherDisplay:10.37,2013-08-29 01:59:00,
2013-08-28 22:04:00,70.1,68.9,29.93,North,360,0.0,0.0,96,0.00,SCT,,1.11,WeatherDisplay:10.37,2013-08-29 02:04:00,
2013-08-28 22:09:00,70.1,68.9,29.93,North,360,0.0,0.0,96,0.00,SCT,,1.11,WeatherDisplay:10.37,2013-08-29 02:09:00,
2013-08-28 22:14:00,70.1,68.9,29.93,North,360,0.8,1.1,96,0.00,SCT,,1.11,WeatherDisplay:10.37,2013-08-29 02:14:00,
2013-08-28 22:19:00,70.1,68.9,29.93,North,360,1.0,2.0,96,0.00,SCT,,1.11,WeatherDisplay:10.37,2013-08-29 02:19:00,
2013-08-28 22:24:00,70.1,68.9,29.93,North,360,0.5,4.0,96,0.00,SCT,,1.11,WeatherDisplay:10.37,2013-08-29 02:24:00,
2013-08-28 22:29:00,70.2,69.0,29.93,North,360,0.6,0.0,96,0.00,SCT,,1.11,WeatherDisplay:10.37,2013-08-29 02:29:00,
2013-08-28 22:34:00,70.3,69.1,29.94,North,360,0.0,3.5,96,0.00,SCT,,1.11,WeatherDisplay:10.37,2013-08-29 02:34:00,
2013-08-28 22:39:00,70.3,69.1,29.94,North,360,0.0,1.1,96,0.00,SCT,,1.11,WeatherDisplay:10.37,2013-08-29 02:39:00,
2013-08-28 22:44:00,70.4,69.5,29.94,North,360,0.6,3.5,97,0.00,SCT,,1.11,WeatherDisplay:10.37,2013-08-29 02:44:00,
2013-08-28 22:49:00,70.4,69.2,29.94,North,360,1.3,3.5,96,0.00,SCT,,1.11,WeatherDisplay:10.37,2013-08-29 02:49:00,
2013-08-28 22:54:00,70.3,69.1,29.94,North,360,0.9,0.0,96,0.00,SCT,,1.11,WeatherDisplay:10.37,2013-08-29 02:54:00,
2013-08-28 22:59:00,70.3,69.1,29.94,North,360,0.0,0.0,96,0.00,SCT,,1.11,WeatherDisplay:10.37,2013-08-29 02:59:00,
2013-08-28 23:04:00,70.3,69.1,29.94,North,360,0.0,0.0,96,0.00,FEW,,1.11,WeatherDisplay:10.37,2013-08-29 03:04:00,
2013-08-28 23:09:00,70.2,69.0,29.94,North,360,0.9,2.0,96,0.00,FEW,,1.11,WeatherDisplay:10.37,2013-08-29 03:09:00,
2013-08-28 23:14:00,70.2,69.3,29.94,North,360,0.0,2.3,97,0.00,FEW,,1.11,WeatherDisplay:10.37,2013-08-29 03:14:00,
2013-08-28 23:19:00,70.2,69.3,29.94,North,360,0.1,3.5,97,0.00,FEW,,1.11,WeatherDisplay:10.37,2013-08-29 03:19:00,
2013-08-28 23:24:00,70.1,69.2,29.94,North,360,2.5,3.5,97,0.00,FEW,,1.11,WeatherDisplay:10.37,2013-08-29 03:24:00,
2013-08-28 23:29:00,70.1,69.2,29.94,North,360,1.9,3.5,97,0.00,FEW,,1.11,WeatherDisplay:10.37,2013-08-29 03:29:00,
2013-08-28 23:34:00,70.1,69.2,29.94,North,360,0.0,0.0,97,0.00,FEW,,1.11,WeatherDisplay:10.37,2013-08-29 03:34:00,
2013-08-28 23:39:00,70.1,69.2,29.94,North,360,0.5,3.0,97,0.00,FEW,,1.11,WeatherDisplay:10.37,2013-08-29 03:39:00,
2013-08-28 23:44:00,70.1,69.2,29.94,North,360,1.3,3.5,97,0.00,FEW,,1.11,WeatherDisplay:10.37,2013-08-29 03:44:00,
2013-08-28 23:49:00,70.1,69.2,29.94,North,360,2.7,5.0,97,0.00,FEW,,1.11,WeatherDisplay:10.37,2013-08-29 03:49:00,
2013-08-28 23:54:00,70.1,69.2,29.95,North,360,0.0,0.0,97,0.00,FEW,,1.11,WeatherDisplay:10.37,2013-08-29 03:54:00,
2013-08-28 23:59:00,70.1,69.2,29.95,North,360,0.0,0.0,97,0.00,FEW,,1.11,WeatherDisplay:10.37,2013-08-29 03:59:00,